Indianapolis, IN

1:39 AM EDT on May 23, 2018 (GMT -0400)
Indianapolis Terry

Weather History for KTYQ - July, 2013

Change the Weather History Date:

Monday, July 1, 2013

  Actual Average (KEYE) Record (KEYE)
Temperature  
Mean Temperature 69 °F -  
Max Temperature 73 °F 80 °F 91 °F (2012)
Min Temperature 65 °F 63 °F 52 °F (2008)
Cooling Degree Days 4    
Growing Degree Days 19 (Base 50)    
Moisture  
Dew Point 59 °F    
Average Humidity 74    
Maximum Humidity 81    
Minimum Humidity 65    
Precipitation  
Precipitation 0.01 in - - ()
Sea Level Pressure  
Sea Level Pressure 29.94 in    
Wind  
Wind Speed 9 mph (NE)    
Max Wind Speed 17 mph    
Max Gust Speed 24 mph    
Visibility 10 miles    
Events Rain , Thunderstorm    
Averages and records for this station are not official NWS values.
T = Trace of Precipitation, MM = Missing Value Source: NWS Daily Summary

Daily Weather History Graph

Daily Weather History Graph

Search for Another Location

Airport or City:

Astronomy

Jul. 01, 2013 Rise Set
Actual Time 6:19 AM EDT 9:17 PM EDT
Civil Twilight 5:47 AM EDT 9:50 PM EDT
Nautical Twilight 5:05 AM EDT 10:31 PM EDT
Astronomical Twilight 4:17 AM EDT 11:19 PM EDT
Moon 1:49 AM EDT (7/1) 3:32 PM EDT (7/1)
Length of Visible Light 16h 03m
Length of Day
14h 57m
Waning Crescent, 35% of the Moon is Illuminated
Jul 1
Waning Crescent
Jul 8
New
Jul 15
First Quarter
Jul 22
Full
Jul 29
Last Quarter

Hourly Weather History & Observations

Time (EDT) Temp. Dew Point Humidity Pressure Visibility Wind Dir Wind Speed Gust Speed Precip Events Conditions
12:15 AM 68.2 °F 58.1 °F 70% 29.91 in 10.0 mi NE 6.9 mph - N/A   Overcast
12:35 AM 68.0 °F 58.1 °F 71% 29.91 in 10.0 mi NE 8.1 mph - N/A   Overcast
12:55 AM 68.0 °F 58.1 °F 71% 29.91 in 10.0 mi NE 5.8 mph - N/A   Overcast
1:15 AM 67.6 °F 58.1 °F 71% 29.91 in 10.0 mi NE 8.1 mph - N/A   Overcast
1:35 AM 67.6 °F 58.1 °F 71% 29.91 in 10.0 mi NE 6.9 mph - N/A   Overcast
1:55 AM 67.1 °F 58.3 °F 73% 29.91 in 10.0 mi NE 6.9 mph - N/A   Overcast
2:15 AM 66.9 °F 58.5 °F 74% 29.90 in 10.0 mi NE 5.8 mph - N/A   Overcast
2:35 AM 66.7 °F 58.8 °F 76% 29.90 in 10.0 mi NNE 8.1 mph - N/A   Overcast
2:55 AM 66.6 °F 59.0 °F 77% 29.90 in 10.0 mi NNE 6.9 mph - N/A   Overcast
3:15 AM 66.6 °F 59.0 °F 77% 29.90 in 10.0 mi NNE 8.1 mph - N/A   Overcast
3:35 AM 66.2 °F 59.0 °F 78% 29.89 in 10.0 mi NNE 8.1 mph - N/A   Overcast
3:55 AM 66.2 °F 59.2 °F 78% 29.89 in 10.0 mi NNE 8.1 mph - N/A   Overcast
4:15 AM 66.2 °F 59.2 °F 78% 29.89 in 10.0 mi NNE 6.9 mph - N/A   Overcast
4:35 AM 65.7 °F 59.4 °F 80% 29.90 in 10.0 mi NNE 5.8 mph - N/A   Mostly Cloudy
4:55 AM 66.2 °F 59.4 °F 79% 29.90 in 10.0 mi NNE 6.9 mph - N/A   Overcast
5:15 AM 66.2 °F 59.2 °F 78% 29.91 in 10.0 mi NNE 6.9 mph - N/A   Overcast
5:35 AM 66.2 °F 59.2 °F 78% 29.90 in 10.0 mi NE 11.5 mph - N/A   Overcast
5:55 AM 66.2 °F 59.0 °F 78% 29.91 in 10.0 mi NNE 6.9 mph - N/A   Overcast
6:15 AM 65.3 °F 59.2 °F 81% 29.91 in 10.0 mi NNE 6.9 mph - N/A   Mostly Cloudy
6:35 AM 65.1 °F 59.2 °F 81% 29.91 in 10.0 mi NNE 8.1 mph - N/A   Overcast
6:55 AM 65.3 °F 59.0 °F 80% 29.91 in 10.0 mi NNE 9.2 mph - N/A   Overcast
7:15 AM 65.1 °F 59.0 °F 81% 29.92 in 10.0 mi NE 8.1 mph - N/A   Mostly Cloudy
7:35 AM 65.3 °F 58.3 °F 78% 29.92 in 7.0 mi NE 11.5 mph - N/A   Mostly Cloudy
7:55 AM 65.5 °F 57.6 °F 76% 29.92 in 10.0 mi NE 9.2 mph - N/A Thunderstorm Mostly Cloudy
8:15 AM 66.2 °F 56.8 °F 72% 29.92 in 10.0 mi NE 10.4 mph - N/A   Scattered Clouds
8:35 AM 66.2 °F 56.8 °F 72% 29.92 in 10.0 mi NE 11.5 mph - N/A   Scattered Clouds
8:55 AM 66.4 °F 57.4 °F 73% 29.93 in 10.0 mi NE 10.4 mph - N/A Thunderstorm Mostly Cloudy
9:15 AM 67.5 °F 57.9 °F 71% 29.93 in 10.0 mi NE 11.5 mph - N/A   Mostly Cloudy
9:35 AM 68.9 °F 58.5 °F 69% 29.94 in 10.0 mi NE 11.5 mph - N/A   Scattered Clouds
9:55 AM 70.2 °F 59.2 °F 68% 29.94 in 10.0 mi NE 12.7 mph - N/A   Overcast
10:15 AM 69.3 °F 58.6 °F 69% 29.94 in 10.0 mi NE 10.4 mph - N/A Thunderstorm Overcast
10:35 AM 69.4 °F 59.2 °F 70% 29.94 in 10.0 mi NE 10.4 mph - N/A   Overcast
10:55 AM 69.8 °F 59.2 °F 69% 29.94 in 10.0 mi NNE 12.7 mph 18.4 mph N/A   Overcast
11:15 AM 70.0 °F 59.9 °F 70% 29.94 in 10.0 mi NE 11.5 mph 16.1 mph N/A   Mostly Cloudy
11:35 AM 70.9 °F 60.4 °F 69% 29.94 in 10.0 mi NE 12.7 mph 18.4 mph N/A   Scattered Clouds
11:55 AM 71.8 °F 61.0 °F 69% 29.94 in 10.0 mi ENE 9.2 mph 16.1 mph N/A   Scattered Clouds
12:15 PM 72.7 °F 61.7 °F 68% 29.94 in 10.0 mi ENE 9.2 mph - N/A   Scattered Clouds
12:35 PM 71.6 °F 60.4 °F 68% 29.95 in 10.0 mi NE 11.5 mph - N/A   Mostly Cloudy
12:55 PM 71.1 °F 60.3 °F 69% 29.95 in 10.0 mi ENE 6.9 mph - N/A   Overcast
1:15 PM 71.2 °F 60.8 °F 69% 29.95 in 10.0 mi NE 13.8 mph 21.9 mph N/A   Overcast
1:35 PM 70.7 °F 60.6 °F 70% 29.95 in 10.0 mi NE 12.7 mph 16.1 mph N/A   Overcast
1:55 PM 72.0 °F 61.2 °F 69% 29.94 in 10.0 mi ENE 10.4 mph - N/A Thunderstorm Overcast
2:15 PM 73.9 °F 61.7 °F 65% 29.93 in 10.0 mi NNE 12.7 mph 17.3 mph N/A   Mostly Cloudy
2:35 PM 71.6 °F 60.6 °F 68% 29.93 in 10.0 mi NE 16.1 mph - N/A   Overcast
2:55 PM 72.1 °F 61.5 °F 69% 29.93 in 10.0 mi NE 17.3 mph - N/A   Overcast
3:15 PM 72.0 °F 61.0 °F 68% 29.93 in 10.0 mi ENE 10.4 mph 16.1 mph N/A   Mostly Cloudy
3:35 PM 71.8 °F 61.3 °F 70% 29.93 in 10.0 mi NE 9.2 mph 18.4 mph N/A   Mostly Cloudy
3:55 PM 71.1 °F 61.0 °F 70% 29.94 in 10.0 mi NE 12.7 mph - N/A   Overcast
4:15 PM 70.7 °F 61.0 °F 71% 29.94 in 10.0 mi NE 12.7 mph 17.3 mph N/A   Overcast
4:35 PM 70.0 °F 60.8 °F 73% 29.94 in 10.0 mi NE 11.5 mph 18.4 mph N/A   Overcast
4:55 PM 69.8 °F 60.8 °F 73% 29.95 in 10.0 mi ENE 11.5 mph 18.4 mph N/A   Overcast
5:15 PM 70.0 °F 61.0 °F 73% 29.95 in 10.0 mi ENE 9.2 mph 16.1 mph N/A   Overcast
5:35 PM 69.6 °F 60.6 °F 73% 29.96 in 10.0 mi ENE 11.5 mph 19.6 mph N/A   Overcast
5:55 PM 68.5 °F 59.9 °F 74% 29.96 in 10.0 mi NE 15.0 mph 24.2 mph N/A   Mostly Cloudy
6:15 PM 68.0 °F 59.9 °F 75% 29.96 in 10.0 mi NE 12.7 mph 20.7 mph N/A   Mostly Cloudy
6:35 PM 67.8 °F 59.5 °F 75% 29.96 in 10.0 mi ENE 12.7 mph 20.7 mph N/A   Mostly Cloudy
6:55 PM 68.0 °F 59.9 °F 75% 29.95 in 10.0 mi ENE 9.2 mph 17.3 mph N/A   Mostly Cloudy
7:15 PM 67.8 °F 59.9 °F 76% 29.96 in 10.0 mi NE 11.5 mph 16.1 mph N/A   Scattered Clouds
7:35 PM 68.0 °F 59.9 °F 75% 29.96 in 10.0 mi NE 10.4 mph - N/A   Scattered Clouds
7:55 PM 68.0 °F 59.5 °F 74% 29.96 in 10.0 mi NE 10.4 mph - N/A   Scattered Clouds
8:15 PM 68.0 °F 59.7 °F 75% 29.95 in 10.0 mi NE 13.8 mph 17.3 mph N/A   Mostly Cloudy
8:35 PM 67.6 °F 59.7 °F 76% 29.95 in 10.0 mi NE 13.8 mph 17.3 mph N/A   Overcast
8:55 PM 67.5 °F 59.9 °F 77% 29.96 in 10.0 mi NE 15.0 mph 21.9 mph N/A   Overcast
9:15 PM 67.5 °F 59.5 °F 76% 29.96 in 10.0 mi NE 12.7 mph 19.6 mph N/A   Overcast
9:35 PM 67.1 °F 59.4 °F 76% 29.97 in 10.0 mi NE 10.4 mph 17.3 mph N/A   Overcast
9:55 PM 66.2 °F 59.4 °F 79% 29.97 in 7.0 mi NE 10.4 mph 21.9 mph 0.01 in Rain Light Rain
10:15 PM 66.2 °F 59.2 °F 78% 29.98 in 10.0 mi ENE 11.5 mph 17.3 mph N/A Rain Light Rain
10:35 PM 65.8 °F 59.0 °F 79% 29.98 in 10.0 mi NE 15.0 mph 20.7 mph N/A Rain Light Rain
10:55 PM 66.2 °F 58.8 °F 77% 29.98 in 10.0 mi NE 11.5 mph 17.3 mph N/A Thunderstorm Overcast
11:15 PM 66.2 °F 58.5 °F 76% 29.98 in 10.0 mi ENE 9.2 mph 21.9 mph N/A   Overcast
11:35 PM 66.0 °F 59.0 °F 78% 29.98 in 10.0 mi NE 11.5 mph 17.3 mph N/A   Overcast
11:55 PM 65.7 °F 58.3 °F 77% 29.99 in 10.0 mi ENE 10.4 mph 19.6 mph N/A   Overcast